Regional Weather Roundup
Issued by NWS Newport/Morehead, NC

Home | Current Version | Previous Version | Text Only | Print | Product List | Glossary On
Versions: 1 2 3 4 5 6 7 8 9 10 11 12 13 14 15 16 17 18 19 20 21 22 23 24 25 26 27 28 29 30 31 32 33 34 35 36 37 38 39 40 41 42 43 44 45 46 47 48 49 50
000
ASUS42 KMHX 251310
RWRMHX
WEATHER ROUNDUP FOR EASTERN NORTH CAROLINA
NATIONAL WEATHER SERVICE NEWPORT/MOREHEAD CITY NC
800 AM EST SUN JAN 25 2015

NOTE: "FAIR" INDICATES FEW OR NO CLOUDS BELOW 12,000 FEET
WITH NO SIGNIFICANT WEATHER AND/OR OBSTRUCTIONS TO VISIBILITY

NCZ015>017-031-032-045>047-102-103-251400-
NORTH COAST

CITY           SKY/WX    TMP DP  RH WIND       PRES   REMARKS
EDENTON        CLEAR     37  30  77 W3        29.93R
ELIZABETH CITY CLEAR     35  29  78 W6        29.93R
KITTY HAWK     SUNNY     39  32  76 W6        29.92R
MANTEO         CLEAR     39  30  70 NW8G16    29.93R

$$

NCZ045>047-081-094-103-104-251400-
CENTRAL COAST

CITY           SKY/WX    TMP DP  RH WIND       PRES   REMARKS
FRISCO         CLEAR     42  32  67 NW13G22   29.94R
SWANQUARTER    NOT AVBL

$$

NCZ095-097-098-100-101-251400-
SOUTHERN COAST

CITY           SKY/WX    TMP DP  RH WIND       PRES   REMARKS
BEAUFORT       CLEAR     39  32  76 W6        29.97R
CEDAR ISLAND   NOT AVBL
JACKSONVILLE   CLEAR     35  32  88 SW3       29.97R
PINEY ISLAND     N/A    N/A N/A N/A MISG      29.95R
WILMINGTON     CLEAR     33  33 100 S3        29.98R FOG


$$

NCZ011>013-027>030-043-044-078>080-089-090>093-098-251400-
COASTAL PLAIN

CITY           SKY/WX    TMP DP  RH WIND       PRES   REMARKS
AHOSKIE        CLEAR     30  27  89 CALM      29.93R
CLINTON        CLEAR     30  30 100 CALM      29.97R FOG
ELIZABETHTOWN  CLEAR     32  31  96 CALM      29.97R
GOLDSBORO      CLEAR     30  30  99 CALM      29.94R
GREENVILLE     CLEAR     34  32  93 CALM      29.96R
HAVELOCK       CLEAR     35  31  85 SW3       29.98R
KENANSVILLE    CLEAR     29  29 100 CALM      29.97R FOG
KINSTON        CLEAR     32  30  93 CALM      29.96R
NEW BERN       CLEAR     34  30  85 SW3       29.97R
RICHLANDS      CLEAR     32  28  86 SW3       29.97R
ROCKY MOUNT    CLEAR     29  26  89 CALM      29.95R
WASHINGTON     CLEAR     31  29  91 CALM      29.94R
WHITEVILLE     CLEAR     32  31  97 CALM      29.99R

$$

AMZ130-135-150-152-154-156-158-170-250-252-270-ANZ085-086-088-633-658-670-251400-
MARINE OBSERVATIONS

STATION/POSITION TIME  TEMP    WIND        PRES    WAVE   SWELL
                       AIR SEA DIR/SP/G            HT/PER HT/PER
                 (UTC) (F)     (DEG/KT/KT) (MB)    (FT/S) (FT/S)
CHESAPEAKE LIGHT 1200   40     290/ 17/ 18 1012.8
64 E VA BEACH    1300   45 52  340/ 23/ 25 1011.5    6/ 6   2/11
DUCK             1300   39 43  300/  9/ 14 1012.4
2 E DUCK         1300      43                N/A     3/11   2/11
10 NE DUCK       1300      45                N/A     4/10   2/11
OREGON INLET     1300   39 47  280/  9/ 10 1013.3
13E OREGON INLT  1300      46                N/A     4/11   2/11
HATTERAS CG      1300   44 53  310/ 17/ 19 1013.9
DIAMOND BUOY     1300   48 70  320/ 17/ 23 1013.1    7/10   3/10
17 S OCRACOKE    NOT AVBL
CAPE LOOKOUT     1200   44     310/  8/ 10 1013.7
BEAUFORT LAB     1300   41 50  280/  2/  5 1013.5
27 SE WRIGHTSVLE NOT AVBL
5 SE WRIGHTSVLE  1200   43 51  300/  6/  8 1014.3
225 S CAPE HAT   1223   64 72  290/ 14/ 19 1014.0   11/10  10/10
41 SE CHARLESTON 1300   51 69  310/ 12/ 16 1015.9    5/ 7   3/ 7

$$



USA.gov is the U.S. government's official web portal to all federal, state and local government web resources and services.